Temperature
23 22 22 21 21 21 20 20 19 19 19 19 18 18 18 18 18 18 18 18 18 18 18 18 18 18 18 18 17 17 17 17 17 17 17 17 17 17 17 17 17 17 17
22 22 22 22 21 21 21 20 20 19 19 19 19 18 18 18 18 18 18 18 18 18 18 18 18 18 18 17 17 17 17 17 17 17 17 17 17 17 17 17 17 17 17
23 23 22 22 22 21 21 20 20 20 19 19 19 18 18 18 18 18 18 18 18 18 18 18 18 18 18 18 17 17 17 17 17 17 17 17 17 17 17 17 17 17 17
23 23 23 22 22 22 21 21 20 20 19 19 19 18 18 18 18 18 18 18 18 18 18 18 17 17 17 17 17 17 17 17 17 17 17 17 17 17 17 17 17 17 17
23 23 23 23 22 22 21 21 20 20 20 19 19 18 18 18 18 18 18 18 18 18 18 17 17 17 17 17 17 17 17 17 17 17 17 17 17 17 17 17 17 17 17
24 24 23 23 22 22 21 21 21 20 20 19 19 19 18 18 18 18 18 18 18 18 17 17 17 17 17 17 17 17 17 17 17 17 17 17 17 17 17 17 17 17 17
24 23 23 23 22 22 22 21 21 20 20 19 19 19 19 18 18 18 18 18 18 18 18 17 17 17 17 17 17 17 17 17 17 17 17 17 17 17 17 17 17 17 17
24 24 24 23 23 22 22 22 21 21 20 20 19 19 19 18 18 18 18 18 18 18 18 17 17 17 17 17 17 17 17 17 17 17 17 17 17 17 17 17 17 16 16
24 24 24 24 23 23 22 22 21 21 20 20 19 19 19 18 18 18 18 18 18 18 17 17 17 17 17 17 17 17 17 17 17 17 17 17 17 17 17 17 16 16 16
25 24 24 24 23 23 22 22 21 21 20 20 19 19 19 18 18 18 18 18 18 17 17 17 17 17 17 17 17 17 17 17 17 17 17 17 17 17 16 16 16 16 16
25 25 25 24 24 23 22 22 21 21 20 20 19 19 19 19 18 18 18 18 18 17 17 17 17 17 17 17 17 17 17 17 17 16 16 17 16 16 16 16 16 16 16
25 25 25 24 23 23 22 22 21 21 20 20 20 19 19 19 18 18 18 18 18 17 17 17 17 17 17 17 17 17 17 16 16 16 16 16 16 16 16 16 16 16 16
25 25 24 24 23 23 22 22 21 21 20 20 20 19 19 19 18 18 18 18 18 17 17 17 17 17 17 17 16 17 16 16 16 16 16 16 16 16 16 16 16 16 16
25 25 25 24 23 23 22 22 21 21 21 20 20 19 19 19 18 18 18 18 18 17 17 17 17 17 17 16 16 16 16 16 16 16 16 16 16 16 16 16 16 15 15
24 25 25 24 24 23 23 22 22 21 21 20 20 20 19 19 18 18 18 18 18 17 17 17 17 17 16 16 16 16 16 16 16 16 16 16 15 15 15 15 15 15 15
25 25 25 24 24 24 23 22 22 21 21 20 20 20 19 19 18 18 18 18 17 17 17 17 17 16 16 16 16 16 16 16 16 16 16 15 15 15 15 15 15 15 15
25 25 25 25 24 24 23 23 22 21 21 21 20 20 19 19 18 18 18 17 17 17 17 17 16 16 16 16 16 16 15 15 15 15 15 15 15 15 15 15 15 15 14
25 25 25 25 24 24 23 23 22 21 21 21 20 19 19 19 18 18 17 17 17 17 17 16 16 16 16 16 15 15 15 15 15 15 15 15 15 15 14 14 14 14 14
25 25 25 25 24 24 23 23 22 21 21 20 20 19 19 18 18 18 17 17 17 16 16 16 16 16 16 15 15 15 15 15 15 14 14 14 14 14 14 14 14 14 14
24 24 24 24 24 23 22 22 21 21 21 20 19 19 18 18 18 18 17 17 17 16 16 16 16 15 15 15 15 15 15 14 14 14 14 14 13 13 13 13 13 13 13
23 23 23 23 23 22 22 21 21 21 20 20 19 18 18 18 17 17 17 17 16 16 16 16 15 15 15 15 14 14 14 14 14 13 13 13 13 13 13 13 13 12 12
22 22 22 22 22 21 21 21 20 20 19 19 18 18 18 17 17 17 16 16 16 15 15 15 15 15 15 14 14 14 13 13 13 13 13 13 13 12 12 12 12 12 12
20 21 21 21 21 20 20 20 19 19 18 18 18 17 17 17 17 16 16 15 15 15 15 15 15 14 14 14 14 13 13 13 13 13 12 12 12 12 12 12 11 11 11
20 20 20 20 20 19 19 19 18 18 17 17 17 17 16 16 16 16 15 15 15 15 14 14 14 14 14 13 13 13 13 12 12 12 12 12 11 11 11 11 11 11 11
18 19 19 18 18 18 18 17 17 17 17 16 16 16 16 15 15 15 14 14 14 14 14 14 13 13 13 13 12 12 12 12 12 11 11 11 11 11 11 10 10 10 10
17 17 17 17 17 17 17 16 16 16 16 16 16 15 15 15 14 14 14 14 14 13 13 13 13 12 12 12 12 12 12 11 11 11 11 11 10 10 10 10 10 9 9
Wind_Speed
7 6 7 8 8 8 9 9 9 8 7 5 4 3 3 3 2 4 7 9 9 9 8 5 5 5 4 5 5 3 3 2 2 2 1 1 1 3 4 4 5 6 8
6 7 7 8 9 10 10 9 10 9 8 6 5 3 2 2 2 3 4 7 8 9 8 7 5 5 4 5 5 4 3 2 3 3 1 1 2 1 3 3 4 5 6
10 9 9 9 9 10 11 10 10 9 8 6 4 3 2 1 1 2 2 4 7 9 9 8 7 6 6 6 6 6 6 4 3 3 3 3 3 1 1 2 3 4 4
9 9 9 9 10 10 9 9 9 8 8 7 6 6 5 4 4 3 3 4 6 7 8 8 8 6 5 6 7 6 5 5 4 3 3 3 3 2 1 1 2 3 4
11 11 11 11 9 8 8 8 8 7 7 8 8 7 5 4 2 2 3 3 3 5 7 7 7 6 6 6 6 6 6 5 5 4 3 3 2 2 3 3 2 1 3
10 10 8 7 7 7 8 8 8 8 7 8 7 7 7 5 4 4 4 3 3 3 5 6 6 6 6 6 7 7 7 7 6 5 4 4 3 4 4 4 3 3 3
10 9 9 9 8 9 9 9 9 8 8 8 7 7 7 7 7 5 5 4 3 3 4 4 5 5 6 6 6 6 7 7 7 7 6 6 5 3 4 3 3 3 2
9 9 9 9 9 10 10 9 9 8 8 8 7 6 6 5 4 5 4 4 4 4 3 4 5 5 6 6 5 5 6 6 7 7 6 5 5 5 4 4 3 3 2
9 9 8 8 9 9 10 10 9 7 7 7 7 6 5 5 5 4 4 3 4 4 4 4 5 5 5 5 4 4 5 5 6 6 6 5 4 5 5 4 4 4 4
8 8 7 7 7 8 8 8 8 8 7 7 6 6 5 5 5 4 4 4 4 3 3 4 5 4 4 4 5 4 4 4 5 4 5 5 4 4 4 5 5 5 5
9 8 7 6 6 6 7 7 7 7 6 6 6 5 5 5 4 4 4 4 4 4 4 4 4 4 4 4 4 4 4 4 5 4 5 5 4 4 4 4 4 4 4
7 6 6 6 6 7 7 8 8 7 7 7 6 5 5 4 4 4 4 4 4 3 4 4 4 4 4 4 5 5 5 5 5 5 4 5 4 4 4 4 5 5 5
6 6 6 6 7 7 7 8 8 8 7 6 6 5 5 5 5 4 4 3 3 3 2 3 3 4 4 4 5 5 5 5 5 5 5 5 4 4 4 4 5 4 5
8 7 7 7 7 7 7 7 7 7 7 7 6 6 6 5 5 4 3 3 2 2 2 2 3 3 3 4 4 4 4 4 4 4 4 5 5 6 5 5 5 4 4
8 9 9 8 7 7 7 7 7 7 7 7 7 6 5 4 4 3 3 2 2 2 2 2 1 1 1 2 3 3 3 3 3 3 3 4 4 5 4 4 4 4 4
10 10 9 9 9 9 8 7 7 7 6 7 6 5 4 4 3 3 2 2 1 1 1 1 1 1 2 2 3 3 3 3 3 3 2 2 2 3 3 4 4 5 5
10 10 10 10 10 10 9 9 7 6 6 6 5 4 4 3 3 3 3 2 2 1 1 1 1 1 1 1 1 2 2 2 2 2 1 1 1 1 1 1 1 1 2
8 8 8 8 7 7 7 7 6 7 6 6 5 4 4 3 2 2 2 1 1 1 1 1 0 0 1 0 0 0 0 0 1 1 1 1 0 1 0 0 1 1 2
6 6 6 6 6 6 6 7 6 6 5 5 5 4 4 4 3 3 2 2 2 2 1 1 1 0 1 1 0 1 1 1 1 1 0 1 0 1 1 1 0 1 2
3 4 5 6 6 5 6 7 6 5 4 4 4 3 4 4 4 4 2 1 2 2 1 1 0 0 1 1 1 2 1 1 0 0 0 1 1 1 1 1 1 1 1
5 5 7 6 4 5 7 6 5 4 3 2 2 3 3 3 3 3 2 2 2 1 1 1 0 0 1 1 1 2 1 2 2 1 1 0 1 1 0 1 2 3 2
6 6 7 6 5 5 7 6 3 2 3 4 3 3 3 3 3 3 2 2 2 2 1 1 1 1 1 1 1 1 1 2 2 2 2 1 2 1 1 1 1 1 1
5 5 7 7 6 4 4 5 2 3 3 4 3 2 3 3 3 3 2 1 2 2 1 2 2 2 1 1 1 1 1 2 2 1 2 2 2 1 0 0 1 1 1
4 5 7 7 5 4 4 3 3 4 4 3 2 2 3 2 2 2 2 2 1 1 2 2 2 2 1 1 1 1 1 0 0 0 1 1 1 1 1 1 1 0 1
5 5 6 5 4 4 4 4 4 4 4 3 3 2 2 2 2 2 2 1 1 1 2 2 2 2 2 2 2 1 1 1 1 1 1 1 1 1 1 1 1 0 1
5 6 6 5 4 4 4 4 4 4 4 2 2 1 1 2 2 2 2 4 3 3 2 1 1 1 1 1 1 1 1 1 3 2 1 1 1 1 1 1 1 1 0
Wind_Direction
204 188 183 178 174 177 181 186 188 187 175 170 176 183 199 202 204 212 206 204 205 203 200 203 193 185 190 197 181 161 165 176 147 123 37 331 259 236 235 226 221 226 227
192 191 188 184 184 185 187 188 191 187 184 185 177 174 173 192 201 214 211 209 207 206 206 199 194 191 192 194 185 167 162 182 170 156 137 315 325 283 238 223 223 228 226
200 196 196 197 193 193 193 195 193 189 186 175 149 127 107 76 154 208 216 220 213 211 208 202 201 197 193 200 198 187 180 194 198 185 163 175 232 287 297 237 227 223 222
198 198 200 200 202 201 194 192 187 184 180 171 174 176 188 203 214 207 216 227 221 220 214 208 205 206 202 204 205 199 192 183 198 203 209 197 173 187 276 294 243 227 227
196 202 205 205 201 193 187 185 179 183 181 182 187 190 204 209 205 202 225 236 230 226 218 212 207 207 209 212 210 199 199 195 197 196 188 194 197 200 207 253 266 251 235
196 203 203 192 187 182 179 177 178 188 187 189 190 194 204 203 201 210 221 231 235 232 222 215 210 212 212 216 214 209 206 207 207 207 196 186 188 199 200 225 241 250 251
191 194 192 189 186 184 184 181 184 193 190 191 196 201 205 202 206 211 217 221 228 233 232 221 213 214 215 215 210 211 216 209 210 212 212 210 214 195 188 201 228 244 258
191 194 194 191 191 190 186 184 188 194 189 192 199 198 196 197 207 212 213 219 229 237 237 229 224 223 219 218 208 211 216 212 216 221 214 215 222 209 200 193 194 237 259
192 194 188 186 189 189 188 186 185 186 187 191 191 191 192 198 209 214 215 224 232 239 234 232 231 226 218 213 204 215 222 215 218 223 219 220 224 217 217 210 200 204 241
190 191 187 185 186 186 182 177 178 183 184 186 192 196 196 202 208 211 220 225 234 239 240 239 232 226 221 212 205 211 218 221 228 220 218 225 228 221 218 217 217 213 220
192 191 186 178 171 169 170 175 178 177 180 186 191 191 194 198 202 216 229 230 234 236 238 235 228 225 223 214 206 210 208 217 228 225 221 229 226 224 220 212 212 214 211
186 178 171 160 163 171 175 180 182 183 187 185 184 190 192 194 204 221 231 230 233 236 234 231 229 231 229 216 211 216 214 217 227 233 229 237 232 228 227 219 220 219 212
174 165 163 170 177 179 181 185 186 188 185 179 182 188 195 199 210 220 225 225 227 236 236 233 231 236 231 222 222 219 219 221 224 224 227 236 230 239 235 230 229 226 222
180 174 176 183 184 182 185 185 187 185 181 180 185 195 203 206 213 216 215 217 219 227 239 241 238 235 232 225 222 218 219 224 226 225 228 234 230 235 237 235 230 224 220
187 187 187 186 184 181 183 184 185 183 180 180 190 203 204 201 204 209 212 209 210 223 227 237 252 248 238 236 217 216 219 223 236 245 244 245 243 243 239 240 230 215 216
199 193 187 182 184 185 184 182 183 180 174 181 196 199 191 189 194 197 189 182 192 211 201 222 230 257 271 262 213 203 212 212 223 248 266 270 259 261 254 250 237 219 214
195 190 189 188 188 187 181 182 181 169 167 174 180 184 181 188 194 184 172 186 192 185 204 223 213 256 302 304 242 207 207 213 230 244 266 292 314 14 353 342 339 270 243
190 191 189 185 184 176 171 165 158 161 168 173 178 176 171 179 175 166 179 198 195 191 213 227 220 330 323 328 211 197 176 230 276 261 227 220 282 29 53 43 22 359 340
186 184 179 167 154 154 154 147 151 157 168 180 186 185 180 177 174 185 195 197 187 195 191 162 125 228 323 351 7 125 105 68 4 348 52 138 141 16 87 119 117 347 347
143 136 127 122 129 135 134 137 150 157 178 194 196 181 175 180 184 189 187 188 186 192 180 163 182 229 297 308 165 147 144 170 256 302 25 103 98 45 82 162 202 252 286
94 102 105 109 116 126 129 133 142 168 179 161 159 155 158 169 171 163 162 158 156 162 181 196 255 273 283 274 186 162 171 202 214 230 250 210 113 89 74 215 235 247 229
77 88 97 94 93 115 131 133 151 171 133 132 140 156 158 157 152 148 148 148 159 173 209 243 281 307 310 311 290 235 205 203 210 228 232 215 173 166 187 215 223 184 149
79 85 94 88 78 82 114 126 136 121 120 117 124 140 135 133 137 145 159 167 177 192 219 241 265 297 335 350 347 312 254 209 219 236 212 200 171 149 150 125 125 131 139
76 87 94 96 88 77 78 100 109 104 108 113 107 109 124 125 118 122 150 171 187 210 234 254 266 282 303 325 342 347 353 143 158 349 93 99 105 96 76 46 73 114 167
57 72 81 83 81 81 79 74 85 102 109 111 106 97 107 130 118 102 89 152 158 202 216 246 249 260 273 277 253 221 243 221 192 146 104 78 79 65 29 20 38 76 111
72 71 73 71 64 73 73 64 69 93 104 101 104 114 121 118 124 127 86 56 66 65 81 88 171 223 266 310 208 196 177 158 146 133 155 195 209 228 257 275 306 322 319
Height
1533 1535 1538 1540 1543 1545 1547 1548 1550 1552 1554 1555 1556 1558 1560 1562 1563 1565 1566 1568 1569 1571 1572 1573 1575 1576 1577 1578 1579 1580 1581 1581 1582 1583 1583 1583 1583 1584 1584 1585 1585 1586 1587
1532 1534 1536 1538 1540 1543 1545 1547 1548 1550 1552 1554 1555 1557 1559 1560 1561 1563 1565 1566 1567 1569 1570 1572 1573 1574 1575 1576 1578 1578 1579 1580 1581 1581 1581 1581 1582 1581 1582 1583 1583 1584 1584
1529 1532 1534 1536 1538 1540 1542 1545 1546 1549 1551 1553 1554 1555 1557 1558 1559 1561 1562 1564 1565 1567 1568 1570 1571 1572 1573 1574 1575 1576 1577 1578 1579 1580 1581 1580 1579 1580 1580 1580 1581 1581 1582
1527 1530 1532 1534 1536 1539 1541 1543 1545 1547 1549 1551 1552 1553 1554 1555 1557 1558 1560 1561 1563 1564 1566 1567 1568 1569 1571 1572 1573 1574 1575 1576 1576 1577 1578 1579 1578 1579 1578 1578 1578 1579 1579
1524 1527 1529 1532 1535 1537 1540 1542 1544 1545 1547 1549 1550 1551 1552 1554 1555 1556 1557 1558 1560 1561 1562 1564 1565 1566 1567 1569 1570 1571 1572 1573 1574 1574 1575 1575 1576 1576 1576 1575 1575 1576 1576
1522 1525 1528 1530 1533 1535 1538 1540 1542 1543 1545 1546 1548 1549 1550 1551 1552 1553 1554 1555 1557 1558 1559 1560 1561 1562 1564 1565 1566 1568 1568 1569 1570 1571 1571 1572 1572 1572 1572 1572 1572 1572 1573
1519 1522 1525 1527 1530 1533 1535 1538 1540 1541 1543 1544 1545 1547 1548 1548 1549 1550 1551 1552 1554 1555 1556 1557 1557 1559 1560 1561 1563 1564 1564 1566 1566 1567 1567 1568 1568 1569 1569 1569 1569 1569 1569
1516 1520 1523 1525 1528 1530 1533 1535 1537 1539 1541 1542 1543 1544 1545 1546 1547 1548 1549 1550 1551 1552 1553 1553 1554 1555 1556 1557 1559 1559 1560 1561 1562 1563 1563 1564 1565 1565 1566 1566 1566 1565 1565
1514 1517 1520 1523 1526 1528 1531 1533 1535 1537 1539 1540 1541 1542 1543 1544 1545 1545 1546 1547 1548 1548 1549 1550 1550 1551 1552 1553 1555 1555 1556 1557 1558 1559 1560 1560 1561 1561 1562 1562 1562 1563 1561
1512 1515 1518 1521 1524 1527 1530 1532 1534 1536 1537 1539 1540 1540 1541 1542 1543 1543 1544 1545 1545 1546 1546 1547 1547 1548 1548 1549 1551 1551 1552 1553 1554 1555 1555 1556 1556 1557 1557 1558 1558 1558 1558
1510 1513 1516 1520 1523 1526 1528 1531 1532 1534 1535 1537 1538 1539 1539 1540 1541 1541 1542 1542 1543 1543 1543 1543 1544 1544 1545 1546 1547 1548 1548 1549 1550 1551 1551 1552 1552 1553 1553 1553 1553 1553 1554
1509 1512 1515 1518 1521 1524 1527 1529 1531 1532 1534 1535 1536 1537 1537 1538 1539 1539 1540 1540 1540 1540 1540 1540 1541 1541 1542 1542 1543 1544 1545 1545 1546 1547 1547 1548 1548 1548 1549 1549 1549 1549 1549
1508 1511 1514 1517 1520 1522 1525 1527 1529 1530 1532 1533 1534 1535 1535 1536 1537 1537 1538 1538 1538 1538 1538 1538 1538 1538 1538 1539 1540 1540 1541 1542 1542 1543 1543 1543 1544 1544 1544 1544 1544 1544 1544
1506 1509 1512 1515 1518 1521 1523 1525 1527 1529 1530 1531 1532 1533 1533 1534 1535 1536 1536 1536 1536 1536 1536 1536 1536 1536 1536 1536 1537 1537 1537 1538 1538 1539 1539 1539 1539 1539 1539 1539 1539 1539 1539
1503 1506 1509 1512 1515 1518 1521 1523 1525 1527 1528 1529 1530 1531 1532 1533 1533 1534 1534 1534 1534 1534 1534 1534 1534 1534 1534 1534 1534 1534 1534 1534 1535 1535 1535 1535 1535 1535 1535 1535 1535 1535 1534
1500 1503 1506 1510 1513 1515 1518 1521 1523 1524 1526 1527 1528 1530 1531 1531 1531 1532 1532 1532 1532 1532 1532 1532 1532 1531 1531 1531 1531 1531 1531 1531 1531 1531 1531 1531 1531 1531 1531 1530 1530 1530 1530
1496 1500 1503 1506 1509 1512 1515 1517 1520 1522 1524 1525 1526 1528 1529 1529 1530 1530 1530 1530 1530 1530 1530 1530 1530 1530 1529 1529 1529 1529 1528 1528 1528 1528 1528 1527 1527 1526 1526 1526 1525 1525 1525
1493 1496 1500 1504 1507 1510 1513 1515 1518 1520 1521 1523 1524 1526 1527 1527 1527 1528 1528 1528 1528 1528 1528 1528 1528 1527 1527 1527 1526 1526 1526 1525 1525 1525 1525 1524 1523 1523 1523 1522 1522 1521 1521
1491 1494 1498 1501 1505 1508 1510 1513 1515 1517 1519 1520 1521 1523 1524 1524 1525 1525 1525 1526 1526 1526 1526 1526 1525 1524 1525 1525 1524 1523 1523 1522 1522 1522 1521 1521 1521 1520 1520 1519 1519 1518 1518
1489 1492 1495 1499 1502 1505 1508 1510 1512 1514 1516 1518 1519 1520 1521 1522 1521 1522 1522 1523 1523 1523 1523 1523 1523 1522 1522 1522 1521 1521 1520 1520 1519 1519 1519 1518 1518 1517 1517 1516 1516 1515 1514
1488 1491 1494 1496 1500 1503 1505 1507 1509 1511 1514 1515 1517 1517 1518 1519 1519 1520 1520 1520 1520 1521 1520 1520 1519 1519 1519 1518 1518 1518 1517 1517 1516 1516 1515 1515 1515 1514 1514 1513 1513 1512 1511
1488 1490 1492 1494 1497 1500 1502 1504 1507 1509 1511 1512 1513 1514 1514 1515 1516 1517 1517 1517 1517 1517 1517 1517 1516 1516 1516 1515 1515 1515 1514 1513 1513 1512 1512 1511 1511 1511 1510 1510 1509 1509 1509
1488 1490 1491 1493 1496 1498 1501 1502 1504 1506 1508 1508 1509 1509 1510 1511 1511 1512 1514 1515 1515 1514 1514 1514 1513 1512 1512 1512 1512 1511 1511 1510 1510 1509 1509 1508 1508 1507 1507 1507 1506 1506 1506
1489 1490 1492 1493 1495 1497 1499 1501 1503 1504 1506 1506 1506 1507 1507 1508 1509 1509 1510 1511 1511 1511 1511 1510 1510 1509 1509 1508 1508 1507 1507 1507 1506 1506 1505 1505 1505 1504 1504 1504 1503 1503 1503
1490 1491 1492 1494 1495 1496 1498 1499 1500 1501 1503 1503 1503 1504 1505 1506 1507 1507 1507 1507 1508 1508 1507 1507 1508 1507 1506 1506 1505 1504 1504 1503 1503 1502 1502 1502 1502 1501 1501 1501 1500 1500 1500
1491 1492 1493 1495 1496 1497 1497 1498 1499 1500 1501 1502 1502 1502 1504 1504 1504 1505 1504 1504 1505 1504 1504 1504 1504 1503 1503 1502 1502 1501 1501 1500 1500 1500 1499 1499 1499 1499 1498 1498 1498 1497 1497